G7NPW-1 Weather Reports


time (UTC)temp
C
wind
direction
speed
KPH
gust
KPH
rain 1hr
cm
rain 24hr
cm
rain mn
cm
humidity
%
barometer
mb
20260831172503 17 280 25.7 25.7 0.00 0.00 0.00 67 1013.9
20260831164004 20 290 25.7 25.7 0.00 0.00 0.00 59 1012.9
20260831163504 20 290 25.7 25.7 0.00 0.00 0.00 59 1012.9
20260831162504 20 290 25.7 25.7 0.00 0.00 0.00 59 1012.9
20260831161504 20 290 25.7 25.7 0.00 0.00 0.00 59 1012.9
20260831160505 20 290 25.7 25.7 0.00 0.00 0.00 59 1012.9
20260831154503 21 300 24.1 24.1 0.00 0.00 0.00 60 1012.9
20260831153003 21 300 24.1 24.1 0.00 0.00 0.00 60 1012.9
20260831151503 21 300 24.1 24.1 0.00 0.00 0.00 60 1012.9
20260831150505 21 300 24.1 29.0 0.00 0.00 0.00 60 1012.9
20260831145004 20 280 29.0 29.0 0.00 0.00 0.00 68 1011.9
20260831144504 20 280 29.0 29.0 0.00 0.00 0.00 68 1011.9
20260831144004 20 280 29.0 29.0 0.00 0.00 0.00 68 1011.9
20260831143504 20 280 29.0 29.0 0.00 0.00 0.00 68 1011.9
20260831142004 20 280 29.0 29.0 0.00 0.00 0.00 68 1011.9
20260831141504 20 280 29.0 29.0 0.00 0.00 0.00 68 1011.9
20260831141004 20 280 29.0 29.0 0.00 0.00 0.00 68 1011.9
20260831135504 17 280 32.2 32.2 0.00 0.00 0.00 82 1010.8
20260831133004 17 280 32.2 32.2 0.00 0.00 0.00 82 1010.8
20260831131504 17 280 32.2 32.2 0.00 0.00 0.00 82 1010.8
20260831131004 17 280 32.2 32.2 0.00 0.00 0.00 82 1010.8
20260831130004 17 280 32.2 32.2 0.00 0.00 0.00 82 1010.8
20260831125504 17 280 27.4 27.4 0.00 0.00 0.00 82 1010.2
20260831125004 17 280 27.4 27.4 0.00 0.00 0.00 82 1010.2
20260831124505 17 280 27.4 27.4 0.00 0.00 0.00 82 1010.2
20260831122504 17 280 27.4 27.4 0.00 0.00 0.00 82 1010.2
20260831122004 17 280 27.4 27.4 0.00 0.00 0.00 82 1010.2
20260831121504 17 280 27.4 27.4 0.00 0.00 0.00 82 1010.2
20260831120504 17 280 27.4 27.4 0.00 0.00 0.00 82 1010.2
20260831114504 18 270 25.7 25.7 0.00 0.00 0.00 77 1009.1
20260831112004 18 270 25.7 25.7 0.00 0.00 0.00 77 1009.1
20260831111503 18 270 25.7 25.7 0.00 0.00 0.00 77 1009.1
20260831110504 18 270 25.7 25.7 0.00 0.00 0.00 77 1009.1
20260831110004 18 270 25.7 25.7 0.00 0.00 0.00 77 1009.1
20260831105504 17 280 22.5 22.5 0.00 0.00 0.00 77 1009.1
20260831105004 17 280 22.5 22.5 0.00 0.00 0.00 77 1009.1
20260831101004 17 280 22.5 22.5 0.00 0.00 0.00 77 1009.1
20260831095504 16 270 24.1 24.1 0.00 0.00 0.00 82 1008.1
20260831094503 16 270 24.1 24.1 0.00 0.00 0.00 82 1008.1
20260831091504 16 270 24.1 24.1 0.00 0.00 0.00 82 1008.1
20260831091004 16 270 24.1 24.1 0.00 0.00 0.00 82 1008.1
20260831090504 16 270 24.1 24.1 0.00 0.00 0.00 82 1008.1
20260831085004 13 250 22.5 22.5 0.00 0.00 0.00 93 1007.1
20260831084003 13 250 22.5 22.5 0.00 0.00 0.00 93 1007.1
20260831083003 13 250 22.5 22.5 0.00 0.00 0.00 93 1007.1
20260831082504 13 250 22.5 22.5 0.00 0.00 0.00 93 1007.1
20260831080503 13 250 22.5 22.5 0.00 0.00 0.00 93 1007.1
20260831080004 13 250 22.5 22.5 0.00 0.00 0.00 93 1007.1
20260831075504 12 250 20.9 20.9 0.00 0.00 0.00 93 1006.1
20260831075004 12 250 20.9 20.9 0.00 0.00 0.00 93 1006.1
20260831073504 12 250 20.9 20.9 0.00 0.00 0.00 93 1006.1
20260831071504 12 250 20.9 20.9 0.00 0.00 0.00 93 1006.1
20260831070504 12 250 20.9 20.9 0.00 0.00 0.00 93 1006.1
20260831070004 12 250 20.9 20.9 0.00 0.00 0.00 93 1006.1
20260831064004 15 0 8.0 8.0 0.00 0.00 0.00 93 1004.1
20260831063504 15 0 8.0 8.0 0.00 0.00 0.00 93 1004.1
20260831060504 15 0 8.0 8.0 0.00 0.00 0.00 93 1004.1
20260830210504 15 170 8.0 8.0 0.00 0.00 0.00 93 1004.1
20260830205504 15 170 8.0 8.0 0.00 0.00 0.00 93 1004.1
20260830205004 15 170 8.0 8.0 0.00 0.00 0.00 93 1004.1
20260830204004 15 170 8.0 8.0 0.00 0.00 0.00 93 1004.1
20260830203504 15 170 8.0 8.0 0.00 0.00 0.00 93 1004.1
20260830203004 15 170 8.0 8.0 0.00 0.00 0.00 93 1004.1
20260830202004 15 170 8.0 8.0 0.00 0.00 0.00 93 1004.1
20260830195504 15 240 19.3 19.3 0.00 0.00 0.00 93 1004.1
20260830194004 15 240 19.3 19.3 0.00 0.00 0.00 93 1004.1
20260830193004 15 240 19.3 19.3 0.00 0.00 0.00 93 1004.1
20260830192004 15 240 19.3 19.3 0.00 0.00 0.00 93 1004.1
20260830190003 15 240 19.3 27.4 0.00 0.00 0.00 93 1004.1
20260830185504 16 210 27.4 27.4 0.00 0.00 0.00 87 1005.1
20260830184503 16 210 27.4 27.4 0.00 0.00 0.00 87 1005.1
20260830184004 16 210 27.4 27.4 0.00 0.00 0.00 87 1005.1
20260830183504 16 210 27.4 27.4 0.00 0.00 0.00 87 1005.1
20260830183005 16 210 27.4 27.4 0.00 0.00 0.00 87 1005.1
20260830180503 16 210 27.4 27.4 0.00 0.00 0.00 87 1005.1
20260830180004 16 210 27.4 27.4 0.00 0.00 0.00 87 1005.1
20260830175004 20 210 14.5 14.5 0.00 0.00 0.00 68 1004.1
20260830173504 20 210 14.5 14.5 0.00 0.00 0.00 68 1004.1